TimeCST,TemperatureF,Dew PointF,Humidity,Sea Level PressureIn,VisibilityMPH,Wind Direction,Wind SpeedMPH,Gust SpeedMPH,PrecipitationIn,Events,Conditions,WindDirDegrees,DateUTC
12:16 AM,39.2,30.2,70,30.11,10.0,Calm,Calm,-,N/A,,Clear,0,2012-11-08 06:16:00
12:35 AM,39.2,30.2,70,30.12,10.0,Calm,Calm,-,N/A,,Clear,0,2012-11-08 06:35:00
12:55 AM,37.4,28.4,70,30.12,10.0,Calm,Calm,-,N/A,,Clear,0,2012-11-08 06:55:00
1:15 AM,37.4,30.2,75,30.12,10.0,SE,3.5,-,N/A,,Clear,130,2012-11-08 07:15:00
1:35 AM,37.4,30.2,75,30.12,10.0,SE,4.6,-,N/A,,Clear,130,2012-11-08 07:35:00
1:55 AM,39.2,30.2,70,30.13,10.0,SSE,4.6,-,N/A,,Clear,150,2012-11-08 07:55:00
2:15 AM,37.4,30.2,75,30.13,10.0,SE,4.6,-,N/A,,Clear,140,2012-11-08 08:15:00
2:35 AM,37.4,28.4,70,30.13,10.0,SE,4.6,-,N/A,,Clear,140,2012-11-08 08:35:00
2:55 AM,37.4,30.2,75,30.12,10.0,SE,4.6,-,N/A,,Clear,130,2012-11-08 08:55:00
3:15 AM,37.4,28.4,70,30.12,10.0,ESE,4.6,-,N/A,,Clear,120,2012-11-08 09:15:00
3:36 AM,39.2,30.2,70,30.11,10.0,ESE,6.9,-,N/A,,Clear,110,2012-11-08 09:36:00
3:55 AM,37.4,30.2,75,30.11,10.0,ESE,4.6,-,N/A,,Clear,120,2012-11-08 09:55:00
4:15 AM,39.2,30.2,70,30.11,10.0,SE,6.9,-,N/A,,Clear,130,2012-11-08 10:15:00
4:36 AM,39.2,30.2,70,30.10,10.0,SE,8.1,-,N/A,,Clear,130,2012-11-08 10:36:00
4:55 AM,39.2,32.0,75,30.10,10.0,SE,9.2,-,N/A,,Clear,130,2012-11-08 10:55:00
5:55 AM,39.2,30.2,70,30.11,10.0,SE,6.9,-,N/A,,Clear,130,2012-11-08 11:55:00
6:56 AM,39.2,30.2,70,30.11,10.0,SE,6.9,-,N/A,,Clear,140,2012-11-08 12:56:00
7:15 AM,39.2,30.2,70,30.11,10.0,SE,5.8,-,N/A,,Clear,140,2012-11-08 13:15:00
7:35 AM,42.8,33.8,70,30.11,10.0,SE,6.9,-,N/A,,Clear,130,2012-11-08 13:35:00
8:15 AM,46.4,33.8,62,30.12,10.0,SE,8.1,-,N/A,,Clear,140,2012-11-08 14:15:00
8:35 AM,48.2,35.6,62,30.12,10.0,SE,6.9,-,N/A,,Clear,140,2012-11-08 14:35:00
9:15 AM,53.6,35.6,51,30.12,10.0,SSE,10.4,-,N/A,,Clear,150,2012-11-08 15:15:00
9:55 AM,57.2,35.6,44,30.12,10.0,SSE,12.7,-,N/A,,Clear,150,2012-11-08 15:55:00
10:15 AM,59.0,35.6,42,30.12,10.0,SSE,12.7,-,N/A,,Clear,160,2012-11-08 16:15:00
10:35 AM,60.8,35.6,39,30.11,10.0,SSE,10.4,-,N/A,,Clear,150,2012-11-08 16:35:00
10:55 AM,62.6,35.6,37,30.11,10.0,SSE,8.1,-,N/A,,Clear,150,2012-11-08 16:55:00
11:35 AM,66.2,33.8,30,30.08,10.0,South,12.7,17.3,N/A,,Clear,190,2012-11-08 17:35:00
11:55 AM,66.2,35.6,32,30.07,10.0,South,9.2,18.4,N/A,,Clear,180,2012-11-08 17:55:00
12:15 PM,66.2,35.6,32,30.06,10.0,South,9.2,19.6,N/A,,Clear,190,2012-11-08 18:15:00
12:35 PM,68.0,35.6,30,30.05,10.0,South,12.7,21.9,N/A,,Clear,180,2012-11-08 18:35:00
12:55 PM,69.8,35.6,28,30.04,10.0,South,17.3,23.0,N/A,,Clear,190,2012-11-08 18:55:00
1:35 PM,68.0,37.4,33,30.02,10.0,South,13.8,19.6,N/A,,Clear,180,2012-11-08 19:35:00
1:55 PM,69.8,37.4,31,30.02,10.0,South,15.0,21.9,N/A,,Clear,180,2012-11-08 19:55:00
2:35 PM,68.0,39.2,35,30.01,10.0,South,12.7,-,N/A,,Clear,180,2012-11-08 20:35:00
2:55 PM,68.0,39.2,35,30.00,10.0,South,15.0,20.7,N/A,,Clear,170,2012-11-08 20:55:00
3:15 PM,68.0,39.2,35,30.00,10.0,South,11.5,20.7,N/A,,Clear,180,2012-11-08 21:15:00
3:36 PM,68.0,41.0,37,29.99,10.0,South,11.5,18.4,N/A,,Clear,170,2012-11-08 21:36:00
3:55 PM,66.2,41.0,40,29.99,10.0,SSE,13.8,-,N/A,,Clear,160,2012-11-08 21:55:00
4:35 PM,64.4,39.2,40,29.98,10.0,SSE,11.5,-,N/A,,Clear,150,2012-11-08 22:35:00
4:55 PM,62.6,39.2,42,29.98,10.0,SSE,10.4,-,N/A,,Clear,150,2012-11-08 22:55:00
5:35 PM,60.8,37.4,42,29.97,10.0,SSE,11.5,16.1,N/A,,Clear,150,2012-11-08 23:35:00
5:56 PM,59.0,37.4,45,29.97,10.0,SE,10.4,-,N/A,,Clear,140,2012-11-08 23:56:00
6:15 PM,57.2,37.4,48,29.98,10.0,SE,10.4,-,N/A,,Clear,140,2012-11-09 00:15:00
6:35 PM,57.2,37.4,48,29.97,10.0,SSE,10.4,16.1,N/A,,Clear,150,2012-11-09 00:35:00
6:56 PM,57.2,37.4,48,29.98,10.0,SSE,12.7,17.3,N/A,,Clear,150,2012-11-09 00:56:00
7:15 PM,57.2,37.4,48,29.98,10.0,SSE,13.8,19.6,N/A,,Clear,150,2012-11-09 01:15:00
7:35 PM,57.2,37.4,48,29.98,10.0,SSE,11.5,18.4,N/A,,Clear,150,2012-11-09 01:35:00
7:55 PM,55.4,37.4,51,29.98,10.0,SSE,10.4,-,N/A,,Clear,160,2012-11-09 01:55:00
8:15 PM,55.4,37.4,51,29.98,10.0,SSE,10.4,-,N/A,,Clear,150,2012-11-09 02:15:00
8:35 PM,53.6,37.4,54,29.99,10.0,SSE,9.2,-,N/A,,Clear,160,2012-11-09 02:35:00
9:15 PM,51.8,37.4,58,29.99,10.0,SSE,5.8,-,N/A,,Clear,150,2012-11-09 03:15:00
9:35 PM,53.6,37.4,54,29.99,10.0,SSE,6.9,-,N/A,,Clear,160,2012-11-09 03:35:00
9:55 PM,55.4,39.2,54,29.99,10.0,South,8.1,-,N/A,,Clear,170,2012-11-09 03:55:00
10:35 PM,55.4,39.2,54,29.99,10.0,SSE,10.4,-,N/A,,Clear,160,2012-11-09 04:35:00
10:55 PM,55.4,39.2,54,29.98,10.0,South,10.4,-,N/A,,Clear,170,2012-11-09 04:55:00
11:15 PM,55.4,39.2,54,29.98,10.0,SSE,11.5,16.1,N/A,,Clear,160,2012-11-09 05:15:00
11:35 PM,55.4,41.0,58,29.99,10.0,South,10.4,-,N/A,,Clear,170,2012-11-09 05:35:00